Regional Weather Roundup
Issued by NWS

Home | Current Version | Previous Version | Graphics & Text | Print | Product List | Glossary On
Versions: 1 2 3 4 5 6 7 8 9 10 11 12 13 14 15 16 17 18 19 20 21 22 23 24 25 26 27 28 29 30 31 32 33 34 35 36 37 38 39 40 41 42 43 44 45 46 47 48 49 50
000
ASUS43 KMKX 021500
RWRWI

WISCONSIN REGIONAL WEATHER ROUNDUP
NATIONAL WEATHER SERVICE MILWAUKEE/SULLIVAN WI
1000 AM CDT THU OCT 02 2014

NOTE: "FAIR" INDICATES FEW OR NO CLOUDS BELOW 12,000 FEET WITH NO
SIGNIFICANT WEATHER AND/OR OBSTRUCTIONS TO VISIBILITY.

WIZ001-002-006>008-014>016-023>028-021600-
NORTHWEST WISCONSIN

CITY           SKY/WX    TMP DP  RH WIND       PRES   REMARKS
SUPERIOR ARPT  CLOUDY    55  52  89 CALM      29.84S
ASHLAND        CLOUDY    57  54  89 CALM      29.86S
HAYWARD        CLOUDY    56  55  97 S3        29.84F FOG
SIREN          CLOUDY    55  53  92 CALM      29.85S
CUMBERLAND     CLOUDY    54  54 100 CALM      29.84F FOG
RICE LAKE        N/A    N/A N/A N/A MISG        N/A
CHETEK         CLOUDY    56  55  97 CALM      29.84F FOG
LADYSMITH      CLOUDY    56  55  97 CALM      29.86F FOG
EAU CLAIRE     PTSUNNY   61  57  87 N3        29.84R
MENOMONIE      PTSUNNY   60  57  90 CALM      29.84S
NEW RICHMOND   CLOUDY    57  57 100 CALM      29.85S FOG
OSCEOLA        CLOUDY    58  57  96 CALM      29.87S
$$

WIZ003>005-009-010-017-018-021600-
NORTH CENTRAL WISCONSIN

CITY           SKY/WX    TMP DP  RH WIND       PRES   REMARKS
MANITOWISH WTR CLOUDY    54  54 100 SE5       29.86F FOG
ARBOR VITAE    CLOUDY    55  53  95 SE3       29.87S FOG
WOODRUFF       CLOUDY    55  53  95 SE3       29.87S FOG
RHINELANDER    CLOUDY    52  52 100 E3        29.87F FOG
EAGLE RIVER    CLOUDY    55  54  97 CALM      29.86F FOG
LAND O LAKES   FOG       54  54 100 CALM      29.88F VSB 1
PHILLIPS       CLOUDY    54  53  97 CALM      29.85S FOG
TOMAHAWK       CLOUDY    53  53  97 CALM      29.86F FOG
MEDFORD        CLOUDY    56  55  94 E3        29.85F FOG
MERRILL        CLOUDY    58  55  91 SE3       29.85F FOG
$$

WIZ029-030-035-036-043>047-021600-
CENTRAL WISCONSIN

CITY           SKY/WX    TMP DP  RH WIND       PRES   REMARKS
WAUSAU         FAIR      57  54  89 E5        29.85S FOG
MOSINEE        PTSUNNY   57  57 100 CALM      29.87S
MARSHFIELD     CLOUDY    60  56  86 CALM      29.85S FOG
STEVENS POINT  CLOUDY    55  54  95 CALM      29.87R FOG
WAUPACA        CLOUDY    61  58  88 CALM      29.87R FOG
WAUTOMA        NOT AVBL
WISC RAPIDS    CLOUDY    60  57  89 E5        29.86F
CAMP DOUGLAS   NOT AVBL
$$

WIZ011>013-019>022-031-037>040-048>050-021600-
NORTHEAST WISCONSIN

CITY           SKY/WX    TMP DP  RH WIND       PRES   REMARKS
ANTIGO         CLOUDY    55  54  96 CALM      29.87S FOG
SHAWANO        CLOUDY    60  57  89 CALM      29.86S FOG
OCONTO         CLOUDY    60  60  97 E5        29.84F
STURGEON BAY   NOT AVBL
GREEN BAY      PTSUNNY   62  59  90 SE3       29.86S
MANITOWOC      NOT AVBL
APPLETON       PTSUNNY   63  57  82 VRB3      29.86S
CLINTONVILLE   CLOUDY    59  55  88 CALM      29.86R FOG
OSHKOSH        CLOUDY    62  59  90 CALM      29.84F FOG
$$

WIZ032>034-041-042-053>061-021600-
SOUTHWEST WISCONSIN

CITY           SKY/WX    TMP DP  RH WIND       PRES   REMARKS
LA CROSSE      CLOUDY    62  58  86 CALM      29.83S FOG
SPARTA         CLOUDY    59  58  94 CALM      29.85S
VIROQUA        CLOUDY    62  62 100 CALM      29.84S
BOSCOBEL       CLOUDY    62  59  90 E3        29.83F FOG
PRAIRIE DU CHI CLOUDY    62  59  90 E3        29.82F FOG
PLATTEVILLE    CLOUDY    67  63  85 CALM      29.84F
$$

WIZ056-057-062-063-064-067-068-021600-
SOUTH CENTRAL WISCONSIN

CITY           SKY/WX    TMP DP  RH WIND       PRES   REMARKS
REEDSBURG      CLOUDY    61  58  90 CALM      29.85R
BARABOO/DELLS  CLOUDY    59  57  92 CALM      29.85S FOG
LONE ROCK      NOT AVBL
MINERAL POINT  CLOUDY    64  59  82 CALM      29.85S
MADISON        CLOUDY    62  59  90 CALM      29.85S FOG
MIDDLETON      CLOUDY    63  59  88 CALM      29.85F
WATERTOWN      CLOUDY    62  62 100 CALM      29.85R
MONROE         CLOUDY    63  61  94 S3        29.84S FOG
JANESVILLE     CLOUDY    68  64  88 CALM      29.84F
$$

WIZ051-052-058>065-066-070>072-021600-
SOUTHEAST WISCONSIN

CITY           SKY/WX    TMP DP  RH WIND       PRES   REMARKS
MILWAUKEE      CLOUDY    66  60  81 S10       29.86R
WAUKESHA       CLOUDY    63  61  94 S5        29.86S
MILWAUKEE/TIMM CLOUDY    64  59  82 S6        29.86S HAZE
RACINE         CLOUDY    65  59  81 S12       29.88S
BURLINGTON     FAIR      64  61  89 S5        29.86S
KENOSHA        PTSUNNY   68  62  81 S8        29.86
FOND DU LAC    CLOUDY    62  58  86 S6        29.85F
SHEBOYGAN      LGT RAIN  60  58  92 S6        29.86S FOG
WEST BEND      CLOUDY    59  55  88 CALM      29.86S FOG
JUNEAU         CLOUDY    61  58  90 CALM      29.87S
$$

LSZ147-162-021600-
LAKE SUPERIOR

STATION/POSITION TIME  TEMP    WIND        PRES    WAVE
                       AIR SEA DIR/SP/G            HT/PER
                 (UTC) (F)     (DEG/KT/KT) (MB)    (FT/S)
W MID LAKE BUOY  1350   52 50  210/  4/  4 1011.2R   1
DEVILS ISLAND    1400   53     280/  3/  4 1010.9F
SAXON HARBOR     1400   56        CALM     1010.8
$$

LMZ867-665-643>646-021600-
LAKE MICHIGAN

STATION/POSITION TIME  TEMP    WIND        PRES    WAVE
                       AIR SEA DIR/SP/G            HT/PER
                 (UTC) (F)     (DEG/KT/KT) (MB)    (FT/S)
CHAMBERS ISLAND  1400   57     160/  2/  5 1011.9S
S GREEN BAY BUOY 1400   59                 1012.3R
N MID LAKE BUOY  1350   57 58  140/ 12/ 14 1012.2F   2/ 5
NORTHPORT PIER   1400   57     150/  7/ 10 1012.2S
KEWAUNEE LAKESHO 1400   55      CALM  /  1 1010.5F
SHEBOYGAN LAKESH 1400   58 56  160/  7/  8 1011.4F
PORT WASHINGTON  1400   60     180/  2/  4 1011.5F
ATWATER BUOY     1400   60     160/ 12/ 14 1011.8F
MILWAUKEE LAKESH 1400   61     160/  9/ 10   N/A
S MID LAKE BUOY  1350   63 62  160/ 17/ 21 1011.4F   4/ 5
KENOSHA   LAKESH 1400   62     170/ 15/ 16 1011.2S
$$

TC  - TEMPERATURE IN CELSIUS
VSB - VISIBILITY IN STATUTE MILES
WCI - WIND CHILL INDEX
HX  - HEAT INDEX



USA.gov is the U.S. government's official web portal to all federal, state and local government web resources and services.